Time,TemperatureF,DewpointF,PressureIn,WindDirection,WindDirectionDegrees,WindSpeedMPH,WindSpeedGustMPH,Humidity,HourlyPrecipIn,Conditions,Clouds,dailyrainin,SoftwareType,DateUTC
2013-05-27 00:05:00,67.1,58.2,30.12,NE,36,0.0,0.0,73,0.00,,,0.00,Wunderground v.1.15,2013-05-27 04:05:00,
2013-05-27 00:10:00,67.1,58.2,30.12,NE,36,0.0,0.0,73,0.00,,,0.00,Wunderground v.1.15,2013-05-27 04:10:00,
2013-05-27 00:15:00,66.8,57.9,30.12,NE,36,0.0,0.0,73,0.00,,,0.00,Wunderground v.1.15,2013-05-27 04:15:00,
2013-05-27 00:20:00,66.6,58.1,30.13,NE,36,0.0,0.0,74,0.00,,,0.00,Wunderground v.1.15,2013-05-27 04:20:00,
2013-05-27 00:25:00,66.4,58.2,30.13,NE,36,0.0,0.0,75,0.00,,,0.00,Wunderground v.1.15,2013-05-27 04:25:00,
2013-05-27 00:30:00,66.1,57.9,30.13,NE,36,0.0,0.0,75,0.00,,,0.00,Wunderground v.1.15,2013-05-27 04:30:00,
2013-05-27 00:40:00,65.8,58.4,30.13,NE,36,0.0,0.0,77,0.00,,,0.00,Wunderground v.1.15,2013-05-27 04:40:00,
2013-05-27 00:45:00,65.6,58.6,30.13,NE,36,0.0,0.0,78,0.00,,,0.00,Wunderground v.1.15,2013-05-27 04:45:00,
2013-05-27 00:55:00,65.3,58.6,30.13,NE,36,0.0,0.0,79,0.00,,,0.00,Wunderground v.1.15,2013-05-27 04:55:00,
2013-05-27 01:05:00,65.2,58.9,30.13,NE,36,0.0,0.0,80,0.00,,,0.00,Wunderground v.1.15,2013-05-27 05:05:00,
2013-05-27 01:15:00,65.0,58.7,30.13,NE,36,0.0,0.0,80,0.00,,,0.00,Wunderground v.1.15,2013-05-27 05:15:00,
2013-05-27 01:20:00,64.8,58.5,30.12,NE,36,0.0,0.0,80,0.00,,,0.00,Wunderground v.1.15,2013-05-27 05:20:00,
2013-05-27 01:30:00,64.5,58.5,30.12,NE,35,0.0,0.0,81,0.00,,,0.00,Wunderground v.1.15,2013-05-27 05:30:00,
2013-05-27 01:40:00,64.3,58.3,30.12,NE,35,0.0,0.0,81,0.00,,,0.00,Wunderground v.1.15,2013-05-27 05:40:00,
2013-05-27 01:50:00,64.2,58.6,30.12,NE,35,0.0,0.0,82,0.00,,,0.00,Wunderground v.1.15,2013-05-27 05:50:00,
2013-05-27 02:00:00,63.9,58.6,30.12,NE,35,0.0,0.0,83,0.00,,,0.00,Wunderground v.1.15,2013-05-27 06:00:00,
2013-05-27 02:05:00,63.9,59.0,30.12,NE,35,0.0,0.0,84,0.00,,,0.00,Wunderground v.1.15,2013-05-27 06:05:00,
2013-05-27 02:15:00,63.7,58.8,30.12,NE,35,0.0,0.0,84,0.00,,,0.00,Wunderground v.1.15,2013-05-27 06:15:00,
2013-05-27 02:20:00,63.7,58.8,30.11,NE,35,0.0,0.0,84,0.00,,,0.00,Wunderground v.1.15,2013-05-27 06:20:00,
2013-05-27 02:30:00,63.7,59.1,30.11,NE,35,0.0,0.0,85,0.00,,,0.00,Wunderground v.1.15,2013-05-27 06:30:00,
2013-05-27 02:40:00,63.5,58.9,30.11,NE,35,0.0,0.0,85,0.00,,,0.00,Wunderground v.1.15,2013-05-27 06:40:00,
2013-05-27 02:50:00,63.4,58.8,30.11,NE,35,0.0,0.0,85,0.00,,,0.00,Wunderground v.1.15,2013-05-27 06:50:00,
2013-05-27 03:00:00,63.2,58.9,30.11,NE,35,0.0,0.0,86,0.00,,,0.00,Wunderground v.1.15,2013-05-27 07:00:00,
2013-05-27 03:05:00,63.1,58.8,30.11,NE,35,0.0,0.0,86,0.00,,,0.00,Wunderground v.1.15,2013-05-27 07:05:00,
2013-05-27 03:15:00,62.9,58.6,30.11,NE,35,0.0,0.0,86,0.00,,,0.00,Wunderground v.1.15,2013-05-27 07:15:00,
2013-05-27 03:25:00,62.7,58.8,30.11,NE,35,0.0,0.0,87,0.00,,,0.00,Wunderground v.1.15,2013-05-27 07:25:00,
2013-05-27 03:35:00,62.6,58.7,30.10,NE,35,0.0,0.0,87,0.00,,,0.00,Wunderground v.1.15,2013-05-27 07:35:00,
2013-05-27 03:40:00,62.6,58.7,30.10,NE,35,0.0,0.0,87,0.00,,,0.00,Wunderground v.1.15,2013-05-27 07:40:00,
2013-05-27 03:50:00,62.4,58.5,30.10,NE,35,0.0,0.0,87,0.00,,,0.00,Wunderground v.1.15,2013-05-27 07:50:00,
2013-05-27 04:00:00,62.3,58.7,30.09,NE,35,0.0,0.0,88,0.00,,,0.00,Wunderground v.1.15,2013-05-27 08:00:00,
2013-05-27 04:05:00,62.3,58.7,30.09,NE,35,0.0,0.0,88,0.00,,,0.00,Wunderground v.1.15,2013-05-27 08:05:00,
2013-05-27 04:15:00,62.1,58.5,30.09,NE,35,0.0,0.0,88,0.00,,,0.00,Wunderground v.1.15,2013-05-27 08:15:00,
2013-05-27 04:25:00,62.0,58.7,30.09,NE,35,0.0,0.0,89,0.00,,,0.00,Wunderground v.1.15,2013-05-27 08:25:00,
2013-05-27 04:35:00,61.8,58.5,30.09,NE,35,0.0,0.0,89,0.00,,,0.00,Wunderground v.1.15,2013-05-27 08:35:00,
2013-05-27 04:40:00,61.8,58.5,30.09,NE,35,0.0,0.0,89,0.00,,,0.00,Wunderground v.1.15,2013-05-27 08:40:00,
2013-05-27 04:50:00,61.6,58.6,30.09,NE,35,0.0,0.0,90,0.00,,,0.00,Wunderground v.1.15,2013-05-27 08:50:00,
2013-05-27 05:00:00,61.6,58.6,30.09,NE,35,0.0,0.0,90,0.00,,,0.00,Wunderground v.1.15,2013-05-27 09:00:00,
2013-05-27 05:05:00,61.6,58.6,30.09,NE,35,0.0,0.0,90,0.00,,,0.00,Wunderground v.1.15,2013-05-27 09:05:00,
2013-05-27 05:15:00,61.5,58.5,30.10,NE,35,0.0,0.0,90,0.00,,,0.00,Wunderground v.1.15,2013-05-27 09:15:00,
2013-05-27 05:25:00,61.5,58.8,30.10,NE,35,0.0,0.0,91,0.00,,,0.00,Wunderground v.1.15,2013-05-27 09:25:00,
2013-05-27 05:35:00,61.5,58.8,30.10,NE,35,0.0,0.0,91,0.00,,,0.00,Wunderground v.1.15,2013-05-27 09:35:00,
2013-05-27 05:45:00,61.3,58.7,30.10,NE,35,0.0,0.0,91,0.00,,,0.00,Wunderground v.1.15,2013-05-27 09:45:00,
2013-05-27 05:55:00,61.0,58.4,30.10,NE,35,0.0,0.0,91,0.00,,,0.00,Wunderground v.1.15,2013-05-27 09:55:00,
2013-05-27 06:05:00,60.9,58.3,30.10,NE,35,0.0,0.0,91,0.00,,,0.00,Wunderground v.1.15,2013-05-27 10:05:00,
2013-05-27 06:15:00,60.7,58.1,30.10,NE,35,0.0,0.0,91,0.00,,,0.00,Wunderground v.1.15,2013-05-27 10:15:00,
2013-05-27 06:20:00,60.5,57.9,30.10,NE,35,0.0,0.0,91,0.00,,,0.00,Wunderground v.1.15,2013-05-27 10:20:00,
2013-05-27 06:30:00,60.4,57.8,30.10,NE,35,0.0,0.0,91,0.00,,,0.00,Wunderground v.1.15,2013-05-27 10:30:00,
2013-05-27 06:40:00,60.4,57.8,30.10,NE,35,0.0,0.0,91,0.00,,,0.00,Wunderground v.1.15,2013-05-27 10:40:00,
2013-05-27 06:50:00,60.2,57.6,30.10,NE,35,0.0,0.0,91,0.00,,,0.00,Wunderground v.1.15,2013-05-27 10:50:00,
2013-05-27 07:00:00,60.1,57.8,30.10,NE,35,0.0,0.0,92,0.00,,,0.00,Wunderground v.1.15,2013-05-27 11:00:00,
2013-05-27 07:05:00,60.1,57.8,30.11,NE,35,0.0,0.0,92,0.00,,,0.00,Wunderground v.1.15,2013-05-27 11:05:00,
2013-05-27 07:15:00,60.2,58.2,30.11,NE,35,0.0,0.0,93,0.00,,,0.00,Wunderground v.1.15,2013-05-27 11:15:00,
2013-05-27 07:20:00,60.4,58.4,30.11,NE,35,0.0,0.0,93,0.00,,,0.00,Wunderground v.1.15,2013-05-27 11:20:00,
2013-05-27 07:30:00,60.9,58.9,30.11,NE,35,0.0,0.0,93,0.00,,,0.00,Wunderground v.1.15,2013-05-27 11:30:00,
2013-05-27 07:40:00,61.8,60.1,30.11,NE,35,0.0,0.0,94,0.00,,,0.00,Wunderground v.1.15,2013-05-27 11:40:00,
2013-05-27 07:45:00,62.6,60.5,30.11,NE,35,0.0,0.0,93,0.00,,,0.00,Wunderground v.1.15,2013-05-27 11:45:00,
2013-05-27 07:55:00,64.7,62.0,30.11,NE,35,0.0,0.0,91,0.00,,,0.00,Wunderground v.1.15,2013-05-27 11:55:00,
2013-05-27 08:05:00,67.4,62.4,30.11,NE,35,0.0,0.0,84,0.00,,,0.00,Wunderground v.1.15,2013-05-27 12:05:00,
2013-05-27 08:15:00,69.4,62.2,30.12,ENE,76,0.0,0.0,78,0.00,,,0.00,Wunderground v.1.15,2013-05-27 12:15:00,
2013-05-27 08:25:00,70.9,62.6,30.12,ENE,76,0.0,0.0,75,0.00,,,0.00,Wunderground v.1.15,2013-05-27 12:25:00,
2013-05-27 08:35:00,72.1,63.0,30.12,ESE,111,0.0,0.0,73,0.00,,,0.00,Wunderground v.1.15,2013-05-27 12:35:00,
2013-05-27 08:45:00,73.2,62.8,30.12,ESE,110,0.0,0.0,70,0.00,,,0.00,Wunderground v.1.15,2013-05-27 12:45:00,
2013-05-27 08:50:00,73.9,63.1,30.12,ESE,107,0.0,0.0,69,0.00,,,0.00,Wunderground v.1.15,2013-05-27 12:50:00,
2013-05-27 09:00:00,75.1,63.8,30.12,ESE,107,0.0,0.0,68,0.00,,,0.00,Wunderground v.1.15,2013-05-27 13:00:00,
2013-05-27 09:05:00,76.0,63.4,30.12,ESE,107,0.0,0.0,65,0.00,,,0.00,Wunderground v.1.15,2013-05-27 13:05:00,
2013-05-27 09:15:00,77.7,63.6,30.12,NE,49,0.0,1.0,62,0.00,,,0.00,Wunderground v.1.15,2013-05-27 13:15:00,
2013-05-27 09:20:00,78.3,63.3,30.12,ENE,74,0.0,0.0,60,0.00,,,0.00,Wunderground v.1.15,2013-05-27 13:20:00,
2013-05-27 09:25:00,78.6,62.1,30.12,ESE,112,0.0,0.0,57,0.00,,,0.00,Wunderground v.1.15,2013-05-27 13:25:00,
2013-05-27 09:35:00,79.0,61.5,30.12,ESE,109,0.0,0.0,55,0.00,,,0.00,Wunderground v.1.15,2013-05-27 13:35:00,
2013-05-27 09:45:00,80.1,61.4,30.12,ESE,117,0.0,0.0,53,0.00,,,0.00,Wunderground v.1.15,2013-05-27 13:45:00,
2013-05-27 09:55:00,80.5,61.3,30.12,East,88,0.0,0.0,52,0.00,,,0.00,Wunderground v.1.15,2013-05-27 13:55:00,
2013-05-27 10:05:00,80.5,62.3,30.13,ESE,113,0.0,1.0,54,0.00,,,0.00,Wunderground v.1.15,2013-05-27 14:05:00,
2013-05-27 10:15:00,81.2,62.4,30.13,ESE,118,0.0,0.0,53,0.00,,,0.00,Wunderground v.1.15,2013-05-27 14:15:00,
2013-05-27 10:25:00,81.2,61.9,30.13,ESE,109,0.0,4.0,52,0.00,,,0.00,Wunderground v.1.15,2013-05-27 14:25:00,
2013-05-27 10:30:00,81.6,61.7,30.13,East,100,0.0,0.0,51,0.00,,,0.00,Wunderground v.1.15,2013-05-27 14:30:00,
2013-05-27 10:40:00,82.0,61.5,30.13,ESE,105,0.0,0.0,50,0.00,,,0.00,Wunderground v.1.15,2013-05-27 14:40:00,
2013-05-27 10:50:00,82.2,61.7,30.12,East,101,0.0,0.0,50,0.00,,,0.00,Wunderground v.1.15,2013-05-27 14:50:00,
2013-05-27 10:55:00,82.2,60.6,30.12,North,5,0.0,0.0,48,0.00,,,0.00,Wunderground v.1.15,2013-05-27 14:55:00,
2013-05-27 11:05:00,83.0,61.9,30.12,NE,50,0.0,0.0,49,0.00,,,0.00,Wunderground v.1.15,2013-05-27 15:05:00,
2013-05-27 11:15:00,83.8,61.4,30.12,NE,55,0.0,0.0,47,0.00,,,0.00,Wunderground v.1.15,2013-05-27 15:15:00,
2013-05-27 11:20:00,84.0,61.6,30.12,ESE,103,0.0,1.0,47,0.00,,,0.00,Wunderground v.1.15,2013-05-27 15:20:00,
2013-05-27 11:25:00,83.8,61.4,30.12,ESE,103,0.0,1.0,47,0.00,,,0.00,Wunderground v.1.15,2013-05-27 15:25:00,
2013-05-27 11:35:00,84.0,61.6,30.12,ESE,111,0.0,0.0,47,0.00,,,0.00,Wunderground v.1.15,2013-05-27 15:35:00,
2013-05-27 11:45:00,84.0,61.0,30.12,East,98,1.0,1.0,46,0.00,,,0.00,Wunderground v.1.15,2013-05-27 15:45:00,
2013-05-27 11:55:00,84.3,60.6,30.12,NE,34,0.0,1.0,45,0.00,,,0.00,Wunderground v.1.15,2013-05-27 15:55:00,
2013-05-27 12:05:00,85.1,61.4,30.12,ESE,106,0.0,1.0,45,0.00,,,0.00,Wunderground v.1.15,2013-05-27 16:05:00,
2013-05-27 12:15:00,85.9,62.1,30.12,SSE,151,0.0,0.0,45,0.00,,,0.00,Wunderground v.1.15,2013-05-27 16:15:00,
2013-05-27 12:25:00,85.7,60.0,30.12,East,82,1.0,1.0,42,0.00,,,0.00,Wunderground v.1.15,2013-05-27 16:25:00,
2013-05-27 12:35:00,86.5,60.0,30.12,NE,54,0.0,1.0,41,0.00,,,0.00,Wunderground v.1.15,2013-05-27 16:35:00,
2013-05-27 12:45:00,87.2,59.9,30.12,SE,141,0.0,1.0,40,0.00,,,0.00,Wunderground v.1.15,2013-05-27 16:45:00,
2013-05-27 12:55:00,87.4,59.4,30.12,ENE,60,0.0,1.0,39,0.00,,,0.00,Wunderground v.1.15,2013-05-27 16:55:00,
2013-05-27 13:00:00,87.6,59.6,30.11,East,94,0.0,1.0,39,0.00,,,0.00,Wunderground v.1.15,2013-05-27 17:00:00,
2013-05-27 13:05:00,87.4,60.1,30.11,North,349,0.0,1.0,40,0.00,,,0.00,Wunderground v.1.15,2013-05-27 17:05:00,
2013-05-27 13:15:00,87.8,59.0,30.11,East,96,1.0,5.0,38,0.00,,,0.00,Wunderground v.1.15,2013-05-27 17:15:00,
2013-05-27 13:25:00,88.0,60.7,30.11,East,96,1.0,5.0,40,0.00,,,0.00,Wunderground v.1.15,2013-05-27 17:25:00,
2013-05-27 13:35:00,87.8,56.7,30.10,SE,126,1.0,1.0,35,0.00,,,0.00,Wunderground v.1.15,2013-05-27 17:35:00,
2013-05-27 13:40:00,87.6,57.3,30.10,ENE,62,1.0,1.0,36,0.00,,,0.00,Wunderground v.1.15,2013-05-27 17:40:00,
2013-05-27 13:50:00,88.2,57.9,30.10,NE,48,1.0,1.0,36,0.00,,,0.00,Wunderground v.1.15,2013-05-27 17:50:00,
2013-05-27 14:00:00,88.6,57.4,30.09,SSE,162,1.0,1.0,35,0.00,,,0.00,Wunderground v.1.15,2013-05-27 18:00:00,
2013-05-27 14:05:00,89.0,57.0,30.09,South,175,1.0,1.0,34,0.00,,,0.00,Wunderground v.1.15,2013-05-27 18:05:00,
2013-05-27 14:15:00,89.7,54.1,30.09,SE,140,1.0,1.0,30,0.00,,,0.00,Wunderground v.1.15,2013-05-27 18:15:00,
2013-05-27 14:25:00,90.1,54.5,30.09,SW,218,0.0,2.0,30,0.00,,,0.00,Wunderground v.1.15,2013-05-27 18:25:00,
2013-05-27 14:35:00,90.1,55.4,30.09,ESE,109,1.0,2.0,31,0.00,,,0.00,Wunderground v.1.15,2013-05-27 18:35:00,
2013-05-27 14:45:00,89.5,54.9,30.08,SSW,204,1.0,4.0,31,0.00,,,0.00,Wunderground v.1.15,2013-05-27 18:45:00,
2013-05-27 14:55:00,89.7,55.0,30.08,ESE,113,1.0,2.0,31,0.00,,,0.00,Wunderground v.1.15,2013-05-27 18:55:00,
2013-05-27 15:05:00,89.7,55.0,30.07,SW,217,1.0,1.0,31,0.00,,,0.00,Wunderground v.1.15,2013-05-27 19:05:00,
2013-05-27 15:15:00,91.0,57.0,30.07,North,351,0.0,1.0,32,0.00,,,0.00,Wunderground v.1.15,2013-05-27 19:15:00,
2013-05-27 15:20:00,90.7,53.1,30.07,ENE,61,1.0,1.0,28,0.00,,,0.00,Wunderground v.1.15,2013-05-27 19:20:00,
2013-05-27 15:30:00,89.7,54.1,30.06,East,101,1.0,1.0,30,0.00,,,0.00,Wunderground v.1.15,2013-05-27 19:30:00,
2013-05-27 15:40:00,89.7,55.9,30.06,NE,53,1.0,1.0,32,0.00,,,0.00,Wunderground v.1.15,2013-05-27 19:40:00,
2013-05-27 15:50:00,89.3,52.9,30.05,East,94,1.0,3.0,29,0.00,,,0.00,Wunderground v.1.15,2013-05-27 19:50:00,
2013-05-27 15:55:00,88.8,53.4,30.05,ESE,109,1.0,3.0,30,0.00,,,0.00,Wunderground v.1.15,2013-05-27 19:55:00,
2013-05-27 16:05:00,88.6,55.0,30.05,East,96,1.0,4.0,32,0.00,,,0.00,Wunderground v.1.15,2013-05-27 20:05:00,
2013-05-27 16:15:00,88.2,54.6,30.05,ESE,117,1.0,1.0,32,0.00,,,0.00,Wunderground v.1.15,2013-05-27 20:15:00,
2013-05-27 16:20:00,88.4,54.8,30.04,ESE,105,1.0,1.0,32,0.00,,,0.00,Wunderground v.1.15,2013-05-27 20:20:00,
2013-05-27 16:30:00,88.4,54.8,30.04,ESE,113,1.0,1.0,32,0.00,,,0.00,Wunderground v.1.15,2013-05-27 20:30:00,
2013-05-27 16:40:00,88.6,55.0,30.04,East,97,1.0,1.0,32,0.00,,,0.00,Wunderground v.1.15,2013-05-27 20:40:00,
2013-05-27 16:50:00,88.8,54.3,30.04,ESE,109,0.0,0.0,31,0.00,,,0.00,Wunderground v.1.15,2013-05-27 20:50:00,
2013-05-27 17:00:00,88.4,54.8,30.03,East,90,1.0,1.0,32,0.00,,,0.00,Wunderground v.1.15,2013-05-27 21:00:00,
2013-05-27 17:05:00,88.0,54.4,30.03,East,87,1.0,1.0,32,0.00,,,0.00,Wunderground v.1.15,2013-05-27 21:05:00,
2013-05-27 17:15:00,88.0,55.3,30.03,ESE,111,1.0,1.0,33,0.00,,,0.00,Wunderground v.1.15,2013-05-27 21:15:00,
2013-05-27 17:20:00,87.6,54.1,30.03,ENE,78,2.0,2.0,32,0.00,,,0.00,Wunderground v.1.15,2013-05-27 21:20:00,
2013-05-27 17:30:00,87.0,55.2,30.03,ESE,105,1.0,1.0,34,0.00,,,0.00,Wunderground v.1.15,2013-05-27 21:30:00,
2013-05-27 17:40:00,87.0,56.0,30.03,ESE,107,2.0,2.0,35,0.00,,,0.00,Wunderground v.1.15,2013-05-27 21:40:00,
2013-05-27 17:50:00,86.3,56.2,30.03,ESE,113,2.0,2.0,36,0.00,,,0.00,Wunderground v.1.15,2013-05-27 21:50:00,
2013-05-27 18:00:00,85.7,54.9,30.03,ENE,69,3.0,3.0,35,0.00,,,0.00,Wunderground v.1.15,2013-05-27 22:00:00,
2013-05-27 18:05:00,85.7,55.7,30.03,ESE,111,1.0,3.0,36,0.00,,,0.00,Wunderground v.1.15,2013-05-27 22:05:00,
2013-05-27 18:15:00,85.5,55.5,30.03,East,95,1.0,1.0,36,0.00,,,0.00,Wunderground v.1.15,2013-05-27 22:15:00,
2013-05-27 18:25:00,84.9,55.7,30.03,NNE,33,2.0,4.0,37,0.00,,,0.00,Wunderground v.1.15,2013-05-27 22:25:00,
2013-05-27 18:35:00,84.3,56.6,30.03,ESE,108,1.0,2.0,39,0.00,,,0.00,Wunderground v.1.15,2013-05-27 22:35:00,
2013-05-27 18:45:00,84.0,55.7,30.03,ENE,57,1.0,3.0,38,0.00,,,0.00,Wunderground v.1.15,2013-05-27 22:45:00,
2013-05-27 18:50:00,83.8,56.9,30.03,ENE,74,1.0,1.0,40,0.00,,,0.00,Wunderground v.1.15,2013-05-27 22:50:00,
2013-05-27 19:00:00,83.2,56.4,30.03,East,92,1.0,2.0,40,0.00,,,0.00,Wunderground v.1.15,2013-05-27 23:00:00,
2013-05-27 19:05:00,82.8,56.7,30.03,NNE,24,1.0,2.0,41,0.00,,,0.00,Wunderground v.1.15,2013-05-27 23:05:00,
2013-05-27 19:15:00,82.2,56.8,30.04,SE,130,0.0,1.0,42,0.00,,,0.00,Wunderground v.1.15,2013-05-27 23:15:00,
2013-05-27 19:25:00,81.6,56.9,30.04,East,94,1.0,1.0,43,0.00,,,0.00,Wunderground v.1.15,2013-05-27 23:25:00,
2013-05-27 19:30:00,81.2,57.2,30.04,ESE,102,1.0,1.0,44,0.00,,,0.00,Wunderground v.1.15,2013-05-27 23:30:00,
2013-05-27 19:40:00,80.7,58.0,30.04,ENE,61,1.0,1.0,46,0.00,,,0.00,Wunderground v.1.15,2013-05-27 23:40:00,
2013-05-27 19:50:00,80.1,58.0,30.04,East,90,1.0,4.0,47,0.00,,,0.00,Wunderground v.1.15,2013-05-27 23:50:00,
2013-05-27 20:00:00,79.6,58.8,30.04,ENE,71,1.0,1.0,49,0.00,,,0.00,Wunderground v.1.15,2013-05-28 00:00:00,
2013-05-27 20:05:00,79.4,58.6,30.04,SSE,167,1.0,1.0,49,0.00,,,0.00,Wunderground v.1.15,2013-05-28 00:05:00,
2013-05-27 20:15:00,78.8,59.1,30.04,East,79,0.0,2.0,51,0.00,,,0.00,Wunderground v.1.15,2013-05-28 00:15:00,
2013-05-27 20:20:00,78.6,59.5,30.05,ESE,104,1.0,1.0,52,0.00,,,0.00,Wunderground v.1.15,2013-05-28 00:20:00,
2013-05-27 20:30:00,78.1,59.6,30.05,East,88,0.0,0.0,53,0.00,,,0.00,Wunderground v.1.15,2013-05-28 00:30:00,
2013-05-27 20:40:00,77.7,59.7,30.05,East,80,0.0,0.0,54,0.00,,,0.00,Wunderground v.1.15,2013-05-28 00:40:00,
2013-05-27 20:50:00,77.4,60.5,30.06,ESE,105,0.0,0.0,56,0.00,,,0.00,Wunderground v.1.15,2013-05-28 00:50:00,
2013-05-27 20:55:00,77.0,60.6,30.06,ESE,106,0.0,1.0,57,0.00,,,0.00,Wunderground v.1.15,2013-05-28 00:55:00,
2013-05-27 21:05:00,76.7,60.8,30.06,ENE,75,0.0,1.0,58,0.00,,,0.00,Wunderground v.1.15,2013-05-28 01:05:00,
2013-05-27 21:15:00,76.1,60.7,30.06,NE,43,0.0,1.0,59,0.00,,,0.00,Wunderground v.1.15,2013-05-28 01:15:00,
2013-05-27 21:20:00,76.0,61.1,30.07,ESE,109,0.0,1.0,60,0.00,,,0.00,Wunderground v.1.15,2013-05-28 01:20:00,
2013-05-27 21:30:00,75.6,61.2,30.07,ENE,73,0.0,0.0,61,0.00,,,0.00,Wunderground v.1.15,2013-05-28 01:30:00,
2013-05-27 21:40:00,75.3,60.9,30.07,East,84,0.0,0.0,61,0.00,,,0.00,Wunderground v.1.15,2013-05-28 01:40:00,
2013-05-27 21:45:00,75.1,61.2,30.08,East,92,0.0,0.0,62,0.00,,,0.00,Wunderground v.1.15,2013-05-28 01:45:00,
2013-05-27 21:55:00,74.7,61.3,30.08,NNE,25,0.0,0.0,63,0.00,,,0.00,Wunderground v.1.15,2013-05-28 01:55:00,
2013-05-27 22:05:00,74.4,61.4,30.09,ESE,113,0.0,0.0,64,0.00,,,0.00,Wunderground v.1.15,2013-05-28 02:05:00,
2013-05-27 22:15:00,74.0,61.0,30.09,ESE,111,0.0,0.0,64,0.00,,,0.00,Wunderground v.1.15,2013-05-28 02:15:00,
2013-05-27 22:20:00,73.9,61.0,30.09,ENE,70,0.0,0.0,64,0.00,,,0.00,Wunderground v.1.15,2013-05-28 02:20:00,
2013-05-27 22:25:00,73.7,61.2,30.09,East,94,0.0,0.0,65,0.00,,,0.00,Wunderground v.1.15,2013-05-28 02:25:00,
2013-05-27 22:35:00,73.3,60.8,30.10,East,99,0.0,0.0,65,0.00,,,0.00,Wunderground v.1.15,2013-05-28 02:35:00,
2013-05-27 22:45:00,73.0,61.0,30.10,ESE,103,0.0,0.0,66,0.00,,,0.00,Wunderground v.1.15,2013-05-28 02:45:00,
2013-05-27 22:55:00,72.8,61.2,30.10,East,88,0.0,1.0,67,0.00,,,0.00,Wunderground v.1.15,2013-05-28 02:55:00,
2013-05-27 23:05:00,72.3,61.1,30.10,East,89,0.0,0.0,68,0.00,,,0.00,Wunderground v.1.15,2013-05-28 03:05:00,
2013-05-27 23:15:00,72.0,61.3,30.09,ESE,103,0.0,0.0,69,0.00,,,0.00,Wunderground v.1.15,2013-05-28 03:15:00,
2013-05-27 23:25:00,71.6,60.9,30.09,ESE,117,0.0,0.0,69,0.00,,,0.00,Wunderground v.1.15,2013-05-28 03:25:00,
2013-05-27 23:35:00,71.3,61.4,30.10,ESE,117,0.0,0.0,71,0.00,,,0.00,Wunderground v.1.15,2013-05-28 03:35:00,
2013-05-27 23:45:00,70.9,61.4,30.10,ESE,117,0.0,0.0,72,0.00,,,0.00,Wunderground v.1.15,2013-05-28 03:45:00,
2013-05-27 23:55:00,70.6,61.5,30.10,ESE,117,0.0,0.0,73,0.00,,,0.00,Wunderground v.1.15,2013-05-28 03:55:00,